Regional Weather Roundup
Issued by NWS Upton, NY

Current Version | Previous Version | Text Only | Print | Product List | Glossary On
Versions: 1 2 3 4 5 6 7 8 9 10 11 12 13 14 15 16 17 18 19 20 21 22 23 24 25 26 27
000
ASUS41 KOKX 221609
RWROKX

REGIONAL WEATHER ROUNDUP
NATIONAL WEATHER SERVICE NEW YORK NY
1200 PM EDT FRI SEP 22 2017

NOTE: "FAIR" INDICATES FEW OR NO CLOUDS BELOW 12,000 FEET WITH NO
SIGNIFICANT WEATHER AND/OR OBSTRUCTIONS TO VISIBILITY.

NYZ071-072-176-178-NJZ106-104-221700-
NEW YORK CITY METRO AREA

CITY           SKY/WX    TMP DP  RH WIND       PRES   REMARKS
Central Park   SUNNY     78  53  41 VRB6      30.03F
Bronx Bot Gard   N/A     75  52  43 N10       30.00F
LaGuardia APRT MOSUNNY   75  54  47 N16G24    29.99F
Kennedy INTL   MOSUNNY   78  53  41 N17G29    29.99F
Breezy Point     N/A     73 N/A N/A N14G21      N/A
Newark/Liberty PTSUNNY   80  51  36 N17       30.00F
Teterboro      MOSUNNY   75  52  44 N13G20    29.99F
$$

NYZ177-179-078>081-221700-
LONG ISLAND NEW YORK

CITY           SKY/WX    TMP DP  RH WIND       PRES   REMARKS
Jones Beach      N/A     72 N/A N/A N21G26      N/A
Matinecock PT    N/A     73 N/A N/A N20         N/A
Farmingdale    SUNNY     76  54  46 N17G25    29.97S
MacArthur/ISP  MOSUNNY   78  57  48 N17G25    29.95S
Shirley        MOSUNNY   77  58  51 N21G30    29.95F
Mt Sinai Harb    N/A    N/A N/A N/A N10         N/A
Westhampton    PTSUNNY   74  56  53 N18G29    29.94F
East Hampton   PTSUNNY   70  57  64 N18G25    29.92S
Montauk          N/A     67  59  75 N18G30    29.93S
$$

NYZ052-065-067-221700-
HUDSON VALLEY

CITY           SKY/WX    TMP DP  RH WIND       PRES   REMARKS
White Plains   MOSUNNY   76  52  43 N15G24    30.00F
Larchmont Harb   N/A     73 N/A N/A NW18        N/A
Croton On Huds   N/A     79 N/A N/A NW9G15      N/A
Newburgh       MOSUNNY   75  52  43 NE18      30.06F
Montgomery     SUNNY     75  55  49 NE9       30.05F
Poughkeepsie   SUNNY     74  50  42 N14G25    30.04F
Albany         MOSUNNY   72  52  49 N10       30.10F
$$

NJZ001-105-106-008-010-013-015-019>022-104-221700-
NEW JERSEY

CITY           SKY/WX    TMP DP  RH WIND       PRES   REMARKS
Newark/Liberty PTSUNNY   80  51  36 N17       30.00F
Teterboro      MOSUNNY   75  52  44 N13G20    29.99F
Caldwell       SUNNY     77  54  44 N8G17     30.03S
Somerville     NOT AVBL
Linden         PTSUNNY   78  49  36 N12       30.01F
Perth Amboy      N/A     73 N/A N/A N10         N/A
Sussex         SUNNY     77  50  38 NE10      30.05F
Andover          N/A     76  52  43 N8        30.06F
Trenton        MOSUNNY   79  52  38 N13       30.02S
Millville      PTSUNNY   76  60  57 NW7       30.03S
Atlantic City  CLOUDY    74  54  49 N13G23    30.00F
Wrightstown    MOSUNNY   75  53  46 NW12      29.99F
Toms River     PTSUNNY   75  55  49 N10       30.00F
Belmar         PTSUNNY   75  52  44 NW17      30.00F
$$

PAZ047>061-062-071-221700-
EASTERN PENNSYLVANIA

CITY           SKY/WX    TMP DP  RH WIND       PRES   REMARKS
Philadelphia   CLOUDY    75  58  55 NW7       30.03F
Allentown      SUNNY     79  56  45 VRB7      30.05F
Scranton       SUNNY     76  56  49 N8        30.10F
$$

CTZ002-004>006-009-010-012-RIZ004-006-007-MAZ004-011-015-221700-
SOUTHERN NEW ENGLAND
 IN CT

CITY           SKY/WX    TMP DP  RH WIND       PRES   REMARKS
Bradley INTL   PTSUNNY   74  51  44 N20G29    30.02S
Hartford       PTSUNNY   73  53  49 N20G28    30.00S
Danbury        MOSUNNY   76  53  44 N18       30.02F
Wtrbury/Oxford MOSUNNY   73  54  51 N15G25    30.01F
Norwalk Harbor   N/A     73 N/A N/A N15         N/A
Bridgeport     SUNNY     79  55  43 N17       29.97S
Meriden        PTSUNNY   74  52  46 N15G30    29.99S
New Haven      SUNNY     76  53  44 N17G32    29.96S
Chester        PTSUNNY   73  54  49 N21G28    29.97S
Groton         CLOUDY    71  56  58 N22G33    29.92R
Wilimantic     CLOUDY    70  57  63 NE15G23   29.99R

 IN RI

CITY           SKY/WX    TMP DP  RH WIND       PRES   REMARKS
Providence     RAIN      59  58  96 N23G30    29.97F FOG
Block Island   CLOUDY    61  56  83 N23G33    29.90F
Westerly       LGT RAIN  65  57  75 N15G35    29.93F
 IN MA

CITY           SKY/WX    TMP DP  RH WIND       PRES   REMARKS
Boston         LGT RAIN  59  55  87 N24G37    30.01F
Worcester      CLOUDY    62  50  64 N16G31    30.03S
Westfield      CLOUDY    73  49  42 N15G24    30.03F
Provincetown   CLOUDY    59  57  93 NE29G39   29.93F FOG
Nantucket      LGT RAIN  62  62 100 N30G36    29.79S FOG
$$

ANZ330-335-338-340-345-350-353-355-221700-
COASTAL MARINE OBSERVATIONS


STATION/POSITION TIME  SKY/WX   TEMP    WIND        PRES    VSBY  WAVE
                                AIR SEA DIR/SP/G                  HT/PER
                 (UTC)          (F)     (DEG/KT/KT) (MB)    (MI)  (FT/S)
NY HARB ENTRANCE 1450            70 70  340/ 17/ 21 1014.3          5/10
20 S FIRE ISLAND 1450            68 67  350/ 19/ 23 1013.7          7/ 9
GREAT SOUTH BAY  1530            72 69  360/ 17/ 23   N/A
23 SSW MONTAUK P 1550            65 65              1012.5          9/ 7
15 E BARNEGAT LI 1530               69                N/A           9/11
HUDSON CANYON    1550            67 68  350/ 23/ 27 1011.8         10/ 9
KINGS POINT      1530            72 71   40/ 11/ 14 1016.5
EXECUTION ROCKS  1545            74      10/ 16/ 21   N/A
WESTERN LI SOUND NOT AVBL
CENTRAL LI SOUND 1530            71      10/ 17/ 23   N/A           3
EASTERN LI SOUND NOT AVBL
ROBBINS REEF     1530            74      10/ 14/ 21 1016.6
$$


>>>>>>>>>>>>>>>>>>>>>>>>>>>> KEY <<<<<<<<<<<<<<<<<<<<<<<<<<<
>                                                          <
>     SKY/WX - Sky Condition/Present Weather               <
>     TMP    - Temperature in Fahrenheit                   <
>     DP     - Dew Point in Fahrenheit                     <
>     RH     - Relative Humidity in Percent                <
>     WIND   - Direction (from) and Speed in MPH           <
>     PRES   - Mean Sea Level Pressure (inches of Hg)      <
>     WCI    - Wind Chill Index                            <
>     VSB    - VISIBILITY IN MILES                         <
>     HX     - HEAT INDEX                                  <
>     TC     - TEMPERATURE IN CELSIUS                      <
>     VRB    - VARIABLE WIND DIRECTION                     <
>                                                          <
>>>>>>>>>>>>>>>>>>>>>>>>>>>> KEY <<<<<<<<<<<<<<<<<<<<<<<<<<<




USA.gov is the U.S. government's official web portal to all federal, state and local government web resources and services.